[[{"header":{"parameterUnit":"m.s-1","parameterCategory":1,"la1":30.2992,"la2":30.254,"lo1":-89.0895,"lo2":-89.0443,"dy":0.0025,"dx":0.0025,"nx":19,"ny":19,"refTime":"2026-05-03T09:00:00:Z","depth":0,"parameterNumber":2,"parameterNumberName":"U-component_of_WINDS"},"data":[0,0,0,-0.1226,-0.1227,-0.1276,-0.1277,-0.1329,-0.133,0,0,0,0,0,0,0,0,0,0,0,-0.1203,-0.1204,-0.1226,-0.1227,-0.1276,-0.1277,-0.1329,-0.133,0,0,0,0,0,0,0,0,0,0,0,-0.1203,-0.1204,-0.1204,-0.1227,-0.1276,-0.1277,-0.1329,-0.1296,0,0,0,0,0,0,0,0,0,0,-0.125,-0.1221,-0.1203,-0.1204,-0.1227,-0.1276,-0.1277,-0.1295,-0.1298,-0.1302,0,-0.1302,0,-0.1317,-0.1333,-0.1333,0,0,0,-0.1233,-0.1218,-0.1238,-0.1204,-0.1228,-0.1276,-0.1256,-0.1297,-0.1301,-0.1307,-0.1303,-0.1306,-0.1318,-0.1333,-0.1333,-0.1335,-0.1334,0,0,-0.123,-0.1208,-0.1236,-0.1241,-0.1231,-0.1254,-0.1257,-0.1299,-0.1295,-0.1304,-0.1307,-0.1319,-0.1333,-0.1333,-0.1335,-0.1335,0,0,0,-0.1218,-0.1206,-0.1226,-0.1238,-0.1248,-0.1255,-0.1259,-0.1293,-0.1301,-0.1308,-0.1319,-0.1333,-0.1334,-0.1335,-0.1335,-0.1301,0,0,0,-0.1217,-0.1199,-0.1224,-0.1212,-0.1247,-0.1271,-0.1251,-0.1298,-0.1303,-0.1319,-0.1333,-0.1334,-0.1336,-0.1335,-0.1303,-0.1289,0,0,0,-0.1203,-0.1198,-0.1202,-0.121,-0.1231,-0.127,-0.1281,-0.13,-0.131,-0.1333,-0.1334,-0.1336,-0.1335,-0.1304,-0.1291,-0.1284,0,0,0,-0.1182,-0.1171,-0.1201,-0.1194,-0.123,-0.1248,-0.1281,-0.1296,-0.1311,-0.1334,-0.1336,-0.1335,-0.1304,-0.1293,-0.1285,-0.1274,-0.1268,0,0,-0.1156,-0.1167,-0.1164,-0.1193,-0.12,-0.1243,-0.1246,-0.128,-0.1302,-0.1323,-0.1323,-0.1302,-0.1291,-0.1284,-0.1235,-0.1229,0,0,0,-0.1149,-0.1147,-0.1153,-0.1167,-0.1193,-0.1214,-0.1251,-0.1264,-0.1282,-0.1308,-0.1298,-0.1292,-0.1289,-0.1285,-0.128,-0.1279,-0.1332,-0.1332,-0.1332,-0.1082,-0.111,-0.1108,-0.1143,-0.1156,-0.1194,-0.1208,-0.1232,-0.1257,-0.1254,-0.1261,-0.1227,-0.1222,-0.1218,-0.1217,-0.1257,-0.1256,-0.1256,-0.1256,-0.1047,-0.105,-0.1084,-0.1094,-0.1125,-0.1135,-0.1171,-0.1189,-0.1203,-0.1224,-0.1223,-0.1244,-0.1211,-0.1212,-0.1254,-0.1254,-0.1255,-0.1255,-0.1255,-0.1008,-0.1014,-0.103,-0.1053,-0.1068,-0.1104,-0.1116,-0.1144,-0.117,-0.1168,-0.1179,-0.118,-0.1185,-0.1171,-0.1171,-0.1171,-0.1171,-0.1171,-0.1171,-0.0961,-0.098,-0.0986,-0.1013,-0.1026,-0.1047,-0.1085,-0.1099,-0.1122,-0.1141,-0.1142,-0.1168,-0.1202,-0.121,-0.1169,-0.117,-0.117,-0.117,-0.117,-0.0917,-0.0932,-0.0941,-0.0954,-0.0989,-0.1003,-0.1038,-0.1064,-0.108,-0.1085,-0.1112,-0.1132,-0.1146,-0.115,-0.1157,-0.1105,-0.1105,-0.1105,-0.1105,-0.0885,-0.0894,-0.0911,-0.093,-0.0952,-0.0985,-0.0997,-0.1027,-0.1061,-0.1073,-0.1084,-0.1096,-0.1099,-0.1111,-0.1116,-0.1123,-0.1064,-0.1064,-0.1064,-0.086,-0.0873,-0.0877,-0.091,-0.094,-0.0965,-0.0977,-0.0999,-0.1041,-0.1062,-0.1083,-0.1085,-0.1104,-0.1109,-0.1132,-0.1139,-0.1153,0,0]},{"header":{"parameterUnit":"m.s-1","parameterCategory":1,"la1":30.2992,"la2":30.254,"lo1":-89.0895,"lo2":-89.0443,"dy":0.0025,"dx":0.0025,"nx":19,"ny":19,"refTime":"2026-05-03T09:00:00:Z","depth":0,"parameterNumber":3,"parameterNumberName":"V-component_of_WINDS"},"data":[0,0,0,5.4524,5.4528,5.4686,5.4687,5.4893,5.4895,0,0,0,0,0,0,0,0,0,0,0,5.4484,5.4486,5.4524,5.4528,5.4686,5.4687,5.4892,5.4895,0,0,0,0,0,0,0,0,0,0,0,5.4484,5.4486,5.4488,5.4529,5.4686,5.4687,5.4892,5.477,0,0,0,0,0,0,0,0,0,0,5.4615,5.4587,5.4485,5.4488,5.453,5.4686,5.4687,5.4764,5.4778,5.4824,0,5.4871,0,5.4886,5.4909,5.491,0,0,0,5.4522,5.4576,5.4612,5.4488,5.4531,5.4686,5.4613,5.4772,5.4787,5.4842,5.4874,5.4881,5.489,5.491,5.4911,5.5204,5.5205,0,0,5.4513,5.4516,5.4602,5.4622,5.4604,5.4608,5.4618,5.4781,5.4814,5.4874,5.4886,5.4893,5.4912,5.4913,5.5202,5.5204,0,0,0,5.4493,5.451,5.4543,5.4614,5.4643,5.4613,5.4625,5.4807,5.4817,5.4888,5.4895,5.4913,5.4916,5.52,5.5203,5.5285,0,0,0,5.4487,5.4498,5.4539,5.4542,5.464,5.4728,5.4647,5.4806,5.4824,5.4894,5.4913,5.4918,5.5199,5.5202,5.5279,5.5323,0,0,0,5.4472,5.4496,5.4522,5.4542,5.4611,5.4725,5.4745,5.481,5.483,5.491,5.4918,5.5197,5.5201,5.5274,5.5314,5.5397,0,0,0,5.4455,5.4595,5.4523,5.468,5.4609,5.4777,5.4744,5.4868,5.4948,5.4914,5.5199,5.5203,5.5272,5.5309,5.5392,5.5466,5.5499,0,0,5.4632,5.4616,5.4708,5.4649,5.483,5.4753,5.4944,5.5014,5.5018,5.514,5.5147,5.5281,5.5313,5.5396,5.5684,5.571,0,0,0,5.4764,5.483,5.4878,5.4954,5.5011,5.5061,5.5101,5.5125,5.5229,5.5083,5.5336,5.5355,5.5403,5.5438,5.546,5.5499,5.522,5.522,5.5219,5.5017,5.5015,5.5165,5.5181,5.5255,5.5293,5.535,5.5389,5.5367,5.5426,5.5461,5.5637,5.5678,5.5695,5.5735,5.5503,5.5504,5.5504,5.5504,5.5272,5.5362,5.5327,5.546,5.5455,5.5565,5.5604,5.5584,5.5682,5.5611,5.5653,5.5573,5.5723,5.5758,5.551,5.5509,5.5508,5.5508,5.5507,5.5434,5.5477,5.5505,5.5611,5.5692,5.5702,5.5797,5.579,5.5784,5.5826,5.5859,5.5857,5.5851,5.5843,5.5843,5.5844,5.5844,5.5845,5.5845,5.559,5.5619,5.5702,5.5771,5.5816,5.5874,5.591,5.5952,5.5997,5.5983,5.5984,5.5951,5.574,5.5685,5.5855,5.5853,5.5852,5.5851,5.585,5.5844,5.5785,5.5913,5.5957,5.6034,5.6111,5.6101,5.6187,5.6221,5.6266,5.6225,5.6071,5.6053,5.6036,5.599,5.6228,5.6228,5.6228,5.6228,5.5978,5.5969,5.6095,5.6166,5.6235,5.6237,5.6374,5.6401,5.6419,5.6439,5.6403,5.6343,5.6325,5.6317,5.6294,5.625,5.655,5.655,5.655,5.6132,5.6128,5.6249,5.6268,5.6326,5.6374,5.6502,5.658,5.6589,5.6563,5.6452,5.6439,5.634,5.631,5.628,5.6244,5.6164,0,0]}]]